STARLINK-31068 (58623 NORAD) Tracking and Keplerian Element Data

This shows tracking and keplerian element data for the satellite.

Feedback or suggestion? Click here.




ElementValue
Catalog58623
NameSTARLINK-31068
Epoch Orbit450
Epoch Day12.91667824
Epoch Year2024
RAAN185.7038
Inclination43.0009
Eccentricity0.0001414
Argument of Perigee272.3132
Mean Anonmoly285.717
Mean Motion15.53849493
Decay Rate-0.01674473
L11 58623U 23203F 24012.91667824 -.01674473 00000+0 -28317-1 0 9991
L22 58623 43.0009 185.7038 0001414 272.3132 285.7170 15.53849493 4504



Live tracking and technical data element details for STARLINK-31068 (NORAD 58623). STARLINK-31068 can be tracked NOW for your location showing map with azimuth and elevation plus other details from your city location.







IsCatalogInMostPopularTable: catalog: 58623, numindb: 27
Update: records affected: 1



GetName: 58623 STARLINK-31068

Hit Count: updated at: Wed, 17 Apr 2024 02:34:04 GMT